GW3407 Weather Reports


time (UTC)temp
C
wind
direction
speed
KPH
gust
KPH
rain 1hr
cm
rain 24hr
cm
rain mn
cm
humidity
%
barometer
mb
20260502183214 12 275 6.4 40.2 0.00 0.00 0.00 43 1014.9
20260502182710 15 270 3.2 12.9 0.00 0.00 0.00 50 1014.7
20260502182205 13 236 17.7 25.7 0.00 0.00 0.00 44 1015.0
20260502181703 13 257 12.9 19.3 0.00 0.00 0.00 44 1015.2
20260502181202 13 288 0.0 6.4 0.00 0.00 0.00 54 1015.3
20260502180659 12 289 9.7 12.9 0.00 0.00 0.00 46 1015.1
20260502180156 11 273 4.8 14.5 0.00 0.00 0.00 46 1015.3
20260502170120 12 338 3.2 11.3 0.00 0.00 0.00 50 1015.4
20260502164107 11 319 4.8 9.7 0.00 0.00 0.00 52 1015.8
20260502163603 11 270 1.6 8.0 0.00 0.00 0.00 53 1015.6
20260502163059 12 289 9.7 12.9 0.00 0.00 0.00 54 1015.7
20260502162556 11 315 9.7 22.5 0.00 0.00 0.00 53 1015.8
20260502162054 11 259 17.7 20.9 0.00 0.00 0.00 54 1015.9
20260502161550 12 279 3.2 12.9 0.00 0.00 0.00 52 1015.8
20260502161048 13 261 4.8 12.9 0.00 0.00 0.00 49 1015.8
20260502160546 12 307 3.2 9.7 0.00 0.00 0.00 54 1016.0
20260502151959 12 115 3.2 9.7 0.00 0.00 0.00 57 1016.1
20260502151455 12 286 3.2 4.8 0.00 0.00 0.00 58 1015.8
20260502150953 12 253 6.4 8.0 0.00 0.00 0.00 52 1016.0
20260502150450 12 82 4.8 6.4 0.00 0.00 0.00 60 1016.0
20260502130336 7 108 4.8 4.8 0.00 0.00 0.00 95 1016.3
20260502123318 5 90 4.8 6.4 0.00 0.00 0.00 99 1016.1
20260502122815 5 61 6.4 8.0 0.00 0.00 0.00 99 1016.1
20260502122310 5 191 0.0 3.2 0.00 0.00 0.00 99 1016.1
20260502121809 5 90 0.0 3.2 0.00 0.00 0.00 99 1016.1
20260502121306 3 105 4.8 4.8 0.00 0.00 0.00 99 1016.1
20260502120803 3 103 0.0 4.8 0.00 0.00 0.00 99 1016.2
20260502120300 3 190 0.0 3.2 0.00 0.00 0.00 99 1016.2
20260502115757 1 262 0.0 1.6 0.00 0.00 0.00 99 1016.2
20260502115254 1 90 0.0 4.8 0.00 0.00 0.00 99 1016.1
20260502114750 1 110 0.0 4.8 0.00 0.00 0.00 99 1016.3
20260502114247 1 162 1.6 4.8 0.00 0.00 0.00 99 1016.2
20260502113744 1 82 0.0 4.8 0.00 0.00 0.00 99 1016.3
20260502113242 1 109 0.0 3.2 0.00 0.00 0.00 99 1016.1
20260502112740 1 82 1.6 4.8 0.00 0.00 0.00 99 1016.1
20260502112237 0 0 0.0 4.8 0.00 0.00 0.00 99 1016.0
20260502111734 0 16 0.0 3.2 0.00 0.00 0.00 99 1016.0
20260502111232 0 194 0.0 3.2 0.00 0.00 0.00 99 1016.0
20260502110729 0 206 1.6 3.2 0.00 0.00 0.00 99 1016.0
20260502110226 0 245 0.0 3.2 0.00 0.00 0.00 99 1016.0
20260502105724 0 277 0.0 3.2 0.00 0.00 0.00 99 1016.0
20260502105220 0 168 0.0 3.2 0.00 0.00 0.00 99 1016.0
20260502104718 0 117 1.6 4.8 0.00 0.00 0.00 99 1016.1
20260502104216 0 206 1.6 1.6 0.00 0.00 0.00 99 1016.0
20260502103713 0 294 0.0 4.8 0.00 0.00 0.00 99 1016.0
20260502103211 0 90 0.0 4.8 0.00 0.00 0.00 99 1016.1
20260502102707 0 180 0.0 3.2 0.00 0.00 0.00 99 1016.2
20260502102204 0 213 0.0 4.8 0.00 0.00 0.00 99 1016.3
20260502101702 0 166 0.0 3.2 0.00 0.00 0.00 99 1016.2
20260502101200 0 127 3.2 3.2 0.00 0.00 0.00 99 1016.2
20260502100658 0 180 0.0 4.8 0.00 0.00 0.00 99 1016.1
20260502100156 0 209 1.6 3.2 0.00 0.00 0.00 99 1016.2
20260502091130 0 112 0.0 3.2 0.00 0.00 0.00 99 1015.9
20260502090627 0 128 0.0 4.8 0.00 0.00 0.00 99 1016.1
20260502090124 0 126 1.6 4.8 0.00 0.00 0.00 99 1016.1
20260502071522 0 195 0.0 3.2 0.00 0.00 0.00 99 1015.9
20260502071020 1 203 0.0 3.2 0.00 0.00 0.00 99 1015.7
20260502070518 1 131 0.0 4.8 0.00 0.00 0.00 99 1015.8
20260502070016 1 123 0.0 4.8 0.00 0.00 0.00 99 1015.7
20260502065514 1 145 1.6 4.8 0.00 0.00 0.00 99 1015.8
20260502065011 1 180 0.0 4.8 0.00 0.00 0.00 99 1015.9
20260502064510 1 147 0.0 3.2 0.00 0.00 0.00 99 1016.0
20260502064006 0 90 1.6 4.8 0.00 0.00 0.00 99 1016.1
20260502063504 1 188 3.2 3.2 0.00 0.00 0.00 99 1016.1
20260502063002 1 120 0.0 4.8 0.00 0.00 0.00 99 1016.1
20260502062458 1 115 0.0 3.2 0.00 0.00 0.00 99 1016.3
20260502061957 1 233 0.0 4.8 0.00 0.00 0.00 99 1016.2
20260502061454 1 131 1.6 3.2 0.00 0.00 0.00 99 1016.2
20260502060950 1 254 0.0 3.2 0.00 0.00 0.00 99 1016.2
20260502060446 1 227 0.0 4.8 0.00 0.00 0.00 99 1016.5
20260502055943 1 270 1.6 3.2 0.00 0.00 0.00 99 1016.5
20260502055440 1 195 3.2 4.8 0.00 0.00 0.00 99 1016.5
20260502054935 1 167 0.0 4.8 0.00 0.00 0.00 99 1016.2
20260502054432 1 180 0.0 4.8 0.00 0.00 0.00 99 1016.3
20260502053929 1 139 3.2 4.8 0.00 0.00 0.00 99 1016.4
20260502053426 1 157 0.0 4.8 0.00 0.00 0.00 99 1016.4
20260502052924 1 170 0.0 3.2 0.00 0.00 0.00 99 1016.7
20260502052422 1 152 3.2 4.8 0.00 0.00 0.00 99 1016.5
20260502051920 1 180 0.0 4.8 0.00 0.00 0.00 99 1016.4
20260502051418 1 163 0.0 3.2 0.00 0.00 0.00 99 1016.3
20260502050914 1 168 0.0 3.2 0.00 0.00 0.00 99 1016.3
20260502050411 1 157 0.0 4.8 0.00 0.00 0.00 99 1016.5
20260502045908 1 195 0.0 3.2 0.00 0.00 0.00 99 1016.3
20260502045405 2 123 1.6 3.2 0.00 0.00 0.00 98 1016.5
20260502044902 2 176 3.2 4.8 0.00 0.00 0.00 98 1016.6
20260502044357 2 206 3.2 4.8 0.00 0.00 0.00 98 1016.7
20260502043855 2 132 3.2 4.8 0.00 0.00 0.00 98 1016.6
20260502043353 2 144 4.8 4.8 0.00 0.00 0.00 98 1016.5
20260502042852 2 165 3.2 4.8 0.00 0.00 0.00 98 1016.5
20260502042350 2 180 0.0 6.4 0.00 0.00 0.00 98 1016.4
20260502041847 2 143 0.0 4.8 0.00 0.00 0.00 98 1016.6
20260502041344 2 166 0.0 3.2 0.00 0.00 0.00 98 1016.4
20260502040841 2 162 1.6 4.8 0.00 0.00 0.00 98 1016.5
20260502040338 2 138 4.8 4.8 0.00 0.00 0.00 98 1016.5
20260502035834 2 157 1.6 4.8 0.00 0.00 0.00 97 1016.5
20260502035331 2 180 0.0 3.2 0.00 0.00 0.00 97 1016.2
20260502034828 2 154 3.2 4.8 0.00 0.00 0.00 97 1016.4
20260502034326 2 138 0.0 4.8 0.00 0.00 0.00 97 1016.4
20260502033824 3 146 0.0 4.8 0.00 0.00 0.00 96 1016.4
20260502033322 3 97 1.6 4.8 0.00 0.00 0.00 96 1016.4
20260502032818 3 174 1.6 3.2 0.00 0.00 0.00 96 1016.3
20260502032314 3 196 3.2 4.8 0.00 0.00 0.00 96 1016.3
20260502031812 3 195 0.0 4.8 0.00 0.00 0.00 96 1016.4
20260502031310 3 188 0.0 3.2 0.00 0.00 0.00 95 1016.4
20260502030809 3 144 0.0 3.2 0.00 0.00 0.00 94 1016.4
20260502030306 3 174 1.6 4.8 0.00 0.00 0.00 94 1016.5
20260502025803 3 180 3.2 4.8 0.00 0.00 0.00 94 1016.6
20260502025301 4 197 0.0 4.8 0.00 0.00 0.00 94 1016.4
20260502024759 4 151 3.2 3.2 0.00 0.00 0.00 94 1016.5
20260502024256 4 201 0.0 4.8 0.00 0.00 0.00 93 1016.5
20260502023754 4 129 0.0 4.8 0.00 0.00 0.00 93 1016.3
20260502023252 4 180 1.6 3.2 0.00 0.00 0.00 92 1016.2
20260502022749 5 225 0.0 3.2 0.00 0.00 0.00 91 1016.1
20260502022245 5 162 3.2 4.8 0.00 0.00 0.00 91 1016.1
20260502021742 5 154 0.0 4.8 0.00 0.00 0.00 90 1016.0
20260502021240 5 185 0.0 4.8 0.00 0.00 0.00 89 1015.7
20260502020736 5 135 4.8 4.8 0.00 0.00 0.00 88 1015.7
20260502020234 5 112 3.2 4.8 0.00 0.00 0.00 87 1015.7
20260502015732 6 220 0.0 3.2 0.00 0.00 0.00 86 1015.5
20260502015228 5 214 0.0 4.8 0.00 0.00 0.00 88 1015.5
20260502014726 6 253 0.0 3.2 0.00 0.00 0.00 85 1015.4
20260502014222 6 239 3.2 4.8 0.00 0.00 0.00 82 1015.5
20260502013718 6 228 3.2 6.4 0.00 0.00 0.00 82 1015.3
20260502013214 6 200 0.0 4.8 0.00 0.00 0.00 82 1015.3
20260502012711 7 263 0.0 3.2 0.00 0.00 0.00 78 1015.4
20260502012209 7 257 0.0 4.8 0.00 0.00 0.00 76 1015.2
20260502011705 7 270 0.0 4.8 0.00 0.00 0.00 75 1015.2
20260502011201 8 175 0.0 3.2 0.00 0.00 0.00 73 1015.0
20260502010700 8 6 0.0 4.8 0.00 0.00 0.00 72 1015.1
20260502010155 8 60 0.0 6.4 0.00 0.00 0.00 71 1014.8
20260502005653 8 200 1.6 1.6 0.00 0.00 0.00 73 1015.0
20260502005150 8 270 0.0 11.3 0.00 0.00 0.00 71 1014.9
20260502004646 9 236 4.8 9.7 0.00 0.00 0.00 70 1014.8
20260502004143 9 264 0.0 3.2 0.00 0.00 0.00 72 1014.5
20260502003641 9 10 3.2 6.4 0.00 0.00 0.00 71 1014.4
20260502003138 9 5 3.2 6.4 0.00 0.00 0.00 71 1014.7
20260502002634 10 0 1.6 4.8 0.00 0.00 0.00 72 1014.3
20260502002131 10 262 0.0 3.2 0.00 0.00 0.00 70 1014.3
20260502001629 10 273 4.8 6.4 0.00 0.00 0.00 69 1014.2
20260502001126 10 24 4.8 14.5 0.00 0.00 0.00 69 1014.2
20260502000624 10 273 6.4 11.3 0.00 0.00 0.00 67 1014.0
20260502000121 10 290 6.4 11.3 0.00 0.00 0.00 68 1013.7
20260501235617 11 320 3.2 4.8 0.00 0.00 0.00 70 1013.5
20260501235114 11 243 4.8 8.0 0.00 0.00 0.00 69 1013.1
20260501234609 11 285 12.9 12.9 0.00 0.00 0.00 68 1013.4
20260501234107 11 301 6.4 8.0 0.00 0.00 0.00 70 1013.0
20260501233605 11 286 1.6 4.8 0.00 0.00 0.00 71 1012.9
20260501233102 11 313 4.8 4.8 0.00 0.00 0.00 70 1012.7
20260501232557 12 246 9.7 9.7 0.00 0.00 0.00 72 1012.5
20260501232055 12 0 0.0 8.0 0.00 0.00 0.00 71 1012.8
20260501231553 12 270 0.0 6.4 0.00 0.00 0.00 70 1012.7
20260501231051 12 71 0.0 8.0 0.00 0.00 0.00 69 1012.7
20260501230549 12 25 4.8 12.9 0.00 0.00 0.00 70 1012.7
20260501230047 12 226 9.7 9.7 0.00 0.00 0.00 71 1012.7
20260501225544 12 270 3.2 4.8 0.00 0.00 0.00 72 1012.4
20260501225040 12 275 3.2 6.4 0.00 0.00 0.00 72 1012.6
20260501224538 12 274 4.8 11.3 0.00 0.00 0.00 70 1012.3
20260501224035 12 263 0.0 12.9 0.00 0.00 0.00 72 1012.7
20260501223531 12 305 3.2 6.4 0.00 0.00 0.00 75 1012.6
20260501223027 12 331 3.2 6.4 0.00 0.00 0.00 74 1012.4
20260501222524 12 270 0.0 6.4 0.00 0.00 0.00 75 1012.5
20260501222021 12 239 6.4 17.7 0.00 0.00 0.00 74 1012.3
20260501221517 12 277 4.8 6.4 0.00 0.00 0.00 73 1012.4
20260501221015 12 243 6.4 6.4 0.00 0.00 0.00 72 1012.3
20260501220513 12 0 1.6 4.8 0.00 0.00 0.00 74 1012.5
20260501220009 13 235 6.4 11.3 0.00 0.00 0.00 72 1012.2
20260501215505 12 275 3.2 4.8 0.00 0.00 0.00 75 1012.3
20260501215001 12 270 0.0 4.8 0.00 0.00 0.00 74 1012.5
20260501214456 12 20 0.0 3.2 0.00 0.00 0.00 75 1012.5
20260501213952 12 251 1.6 4.8 0.00 0.00 0.00 74 1012.4
20260501213449 12 353 0.0 4.8 0.00 0.00 0.00 74 1012.3
20260501212944 11 280 3.2 6.4 0.00 0.00 0.00 73 1012.3
20260501212441 11 270 8.0 11.3 0.00 0.00 0.00 73 1012.3
20260501211938 12 6 4.8 4.8 0.00 0.00 0.00 73 1012.0
20260501211436 11 270 3.2 9.7 0.00 0.00 0.00 72 1012.1
20260501210933 12 304 4.8 6.4 0.00 0.00 0.00 70 1012.0
20260501210430 12 213 0.0 4.8 0.00 0.00 0.00 73 1011.8
20260501205926 12 248 9.7 14.5 0.00 0.00 0.00 70 1011.9
20260501205423 12 291 4.8 11.3 0.00 0.00 0.00 71 1011.9
20260501204920 12 277 0.0 6.4 0.00 0.00 0.00 73 1012.0
20260501204416 12 289 6.4 12.9 0.00 0.00 0.00 72 1011.8
20260501203912 12 265 3.2 12.9 0.00 0.00 0.00 73 1012.1
20260501203410 12 283 3.2 8.0 0.00 0.00 0.00 72 1012.2
20260501202907 12 298 4.8 17.7 0.00 0.00 0.00 73 1012.1
20260501202404 12 74 8.0 11.3 0.00 0.00 0.00 73 1012.2
20260501201900 12 264 9.7 11.3 0.00 0.00 0.00 73 1012.1
20260501201357 13 334 4.8 22.5 0.00 0.00 0.00 73 1012.1
20260501200854 13 349 6.4 9.7 0.00 0.00 0.00 73 1012.2
20260501200351 13 296 4.8 12.9 0.00 0.00 0.00 74 1012.0
20260501195849 14 308 12.9 12.9 0.00 0.00 0.00 74 1012.0
20260501195344 15 139 4.8 8.0 0.00 0.00 0.00 74 1011.8
20260501194841 15 301 4.8 4.8 0.00 0.00 0.00 73 1011.4
20260501194337 15 19 3.2 4.8 0.00 0.00 0.00 78 1011.5
20260501193833 13 114 1.6 4.8 0.00 0.00 0.00 79 1011.6
20260501193332 13 352 3.2 4.8 0.00 0.00 0.00 80 1011.5
20260501192829 13 346 1.6 4.8 0.00 0.00 0.00 80 1011.4
20260501192326 13 20 0.0 4.8 0.00 0.00 0.00 79 1011.5
20260501191823 13 260 0.0 6.4 0.00 0.00 0.00 78 1011.7
20260501191320 12 282 1.6 9.7 0.00 0.00 0.00 78 1011.7
20260501190817 12 323 0.0 9.7 0.05 0.00 0.00 79 1011.8
20260501190313 12 319 3.2 12.9 0.05 0.00 0.00 77 1011.4
20260501185808 14 347 4.8 8.0 0.00 0.00 0.00 69 1011.6
20260501185306 15 324 4.8 4.8 0.00 0.00 0.00 65 1011.4
20260501184800 15 280 6.4 6.4 0.00 0.00 0.00 59 1011.2
20260501184256 15 283 3.2 4.8 0.00 0.00 0.00 59 1010.8
20260501183752 15 266 4.8 9.7 0.00 0.00 0.00 58 1011.0